map of KBDN home
Great Circle Mapper logo
KBDN - Airport
Location
City:  Bend, Oregon, United States
Name:Bend Municipal Airport
ICAO:KBDN
FAA LID:BDN

Details
Type:Airport (Airfield)
Use:Public/Civil
Latitude:4405'40"N (44.094556)
Longitude:12112'01"W (-121.200221)
Datum:WGS 1984
Elevation:3459 ft (1054 m)
Variation:14.91E (WMM2015 magnetic declination)
-0.12 annual change
Runways:1
Longest:5200 × 75 ft (1585 × 23 m), paved

Time
Time Zone:UTC-8 (DST-7)
Local Time:

Weather
METAR:KBDN 071435Z AUTO 13005KT 10SM CLR M01/M01 A3053 RMK AO2
TAF:KBDN 071120Z 0712/0812 VRB04KT P6SM SCT110
FM071800 VRB03KT P6SM FEW060 BKN110 BKN200
FM080300 VRB02KT P6SM SCT110 SCT200

Related Locations
Nearby:
Farthest:FTU: 10959 mi / 17637 km
Tolagnaro [Maurillac (Fort Dauphin)], MG

Find:

   beyond  
but within

Other Information
Maps:
NOTAMs:
Links:
Sources:

  
flag of United States
flag of Oregon
  

Sectional Chart

Flight Planning
at skyvector.com

Satellite Image

Google Maps Satellite view

 

Copyright © 2004-2016 Karl L. Swartz. All rights reserved.
The Great Circle Mapper name and logo are trademarks of the Great Circle Mapper.
All other trademarks mentioned herein belong to their respective owners.
Please see credits for attibutions and further copyright information.

  Follow gcmap on Facebook Follow gcmap on Twitter Follow gcmap on Google+ GCmap on LinkedIn

hCard Microformat

Geo Microformat